AFL1504 UUEE-USTR

Flight info

Callsign AFL1504
Flight time N/A
Altitude 33000
Route OLMUN3F OLMUN T629 IPSIL T830 LAMGU N604 OGSIN P983 GINPA GINPA2L
Aircraft A320/M-SDE3FGHIRWY/LB1

Departure

Time N/A
Airport Sheremetyevo International Airport (UUEE)

Arrival

Time 2026-04-19 07:57
Airport Roshchino International Airport (USTR)
Time Latitude Longitude Altitude Speed Heading
2026-04-19 06:06 56.16757 39.80158 25756 ft 469 kts 58°
2026-04-19 06:06 56.18495 39.85042 26041 ft 471 kts 58°
2026-04-19 06:07 56.20259 39.90016 26303 ft 474 kts 58°
2026-04-19 06:07 56.22031 39.95018 26581 ft 476 kts 58°
2026-04-19 06:07 56.23814 40.00049 26843 ft 478 kts 58°
2026-04-19 06:07 56.25606 40.05103 27114 ft 480 kts 58°
2026-04-19 06:08 56.27401 40.10179 27374 ft 482 kts 58°
2026-04-19 06:08 56.29202 40.15286 27629 ft 485 kts 58°
2026-04-19 06:08 56.31008 40.20429 27866 ft 487 kts 58°
2026-04-19 06:08 56.32819 40.25594 28104 ft 489 kts 58°
2026-04-19 06:09 56.34637 40.30790 28335 ft 491 kts 59°
2026-04-19 06:09 56.36457 40.36006 28553 ft 493 kts 59°
2026-04-19 06:09 56.38283 40.41256 28779 ft 495 kts 59°
2026-04-19 06:09 56.40117 40.46538 28994 ft 497 kts 59°
2026-04-19 06:10 56.41956 40.51843 29204 ft 499 kts 59°
2026-04-19 06:10 56.43797 40.57162 29454 ft 500 kts 59°
2026-04-19 06:10 56.45498 40.62637 29750 ft 499 kts 66°
2026-04-19 06:10 56.46770 40.68457 30063 ft 496 kts 75°
2026-04-19 06:11 56.47692 40.74456 30312 ft 495 kts 77°
2026-04-19 06:11 56.48592 40.80475 30563 ft 495 kts 77°
2026-04-19 06:11 56.49492 40.86474 30814 ft 495 kts 77°
2026-04-19 06:12 56.51301 40.98488 31348 ft 494 kts 77°
2026-04-19 06:12 56.52196 41.04479 31617 ft 493 kts 77°
2026-04-19 06:12 56.53085 41.10479 31870 ft 493 kts 77°
2026-04-19 06:12 56.53966 41.16466 32140 ft 492 kts 77°
2026-04-19 06:13 56.54843 41.22451 32416 ft 491 kts 77°
2026-04-19 06:13 56.55717 41.28435 32674 ft 490 kts 77°
2026-04-19 06:13 56.56587 41.34409 32918 ft 490 kts 77°
2026-04-19 06:13 56.57444 41.40304 33002 ft 489 kts 77°
2026-04-19 06:14 56.59171 41.52212 33005 ft 488 kts 77°
2026-04-19 06:14 56.60890 41.64200 32998 ft 488 kts 77°
2026-04-19 06:15 56.62569 41.76053 33000 ft 488 kts 77°
2026-04-19 06:15 56.64262 41.88017 32996 ft 489 kts 77°
2026-04-19 06:16 56.65946 41.99991 32985 ft 489 kts 77°
2026-04-19 06:16 56.67610 42.11979 32975 ft 489 kts 78°
2026-04-19 06:17 56.69266 42.23984 32972 ft 489 kts 78°
2026-04-19 06:17 56.70911 42.36006 32965 ft 490 kts 78°
2026-04-19 06:18 56.72542 42.48046 32966 ft 490 kts 78°
2026-04-19 06:18 56.74196 42.60097 32957 ft 491 kts 76°
2026-04-19 06:19 56.76125 42.72042 32955 ft 492 kts 74°
2026-04-19 06:19 56.78175 42.83943 32956 ft 492 kts 74°
2026-04-19 06:20 56.80163 42.95900 32958 ft 493 kts 75°
2026-04-19 06:20 56.82079 43.07912 32961 ft 493 kts 76°
2026-04-19 06:21 56.83971 43.19941 32957 ft 493 kts 76°
2026-04-19 06:21 56.85872 43.31996 32957 ft 494 kts 76°
2026-04-19 06:22 56.87769 43.44070 32955 ft 494 kts 76°
2026-04-19 06:22 56.89656 43.56154 32952 ft 495 kts 76°
2026-04-19 06:23 56.91532 43.68268 32951 ft 495 kts 76°
2026-04-19 06:23 56.93391 43.80406 32955 ft 495 kts 76°
2026-04-19 06:24 56.95242 43.92562 32947 ft 496 kts 76°
2026-04-19 06:24 56.97085 44.04719 32948 ft 496 kts 76°
2026-04-19 06:25 56.98922 44.16942 32946 ft 497 kts 76°
2026-04-19 06:25 57.00748 44.29163 32947 ft 497 kts 76°
2026-04-19 06:26 57.02557 44.41409 32947 ft 497 kts 77°
2026-04-19 06:26 57.04358 44.53663 32945 ft 497 kts 77°
2026-04-19 06:27 57.06149 44.65944 32948 ft 498 kts 77°
2026-04-19 06:27 57.07919 44.78157 32946 ft 498 kts 77°
2026-04-19 06:28 57.09683 44.90470 32944 ft 498 kts 77°
2026-04-19 06:28 57.11149 45.00799 32944 ft 498 kts 77°
2026-04-19 06:29 57.12897 45.13151 32942 ft 499 kts 77°
2026-04-19 06:29 57.14634 45.25504 32942 ft 499 kts 77°
2026-04-19 06:30 57.16360 45.37887 32939 ft 499 kts 77°
2026-04-19 06:30 57.18077 45.50290 32934 ft 499 kts 77°
2026-04-19 06:31 57.19783 45.62705 32943 ft 500 kts 78°
2026-04-19 06:31 57.21464 45.75148 32937 ft 500 kts 78°
2026-04-19 06:32 57.23135 45.87599 32929 ft 500 kts 78°
2026-04-19 06:32 57.24804 46.00063 32931 ft 500 kts 78°
2026-04-19 06:33 57.26470 46.12545 32936 ft 500 kts 78°
2026-04-19 06:33 57.28110 46.25035 32926 ft 500 kts 78°
2026-04-19 06:34 57.29737 46.37545 32929 ft 501 kts 78°
2026-04-19 06:34 57.31356 46.50069 32927 ft 501 kts 78°
2026-04-19 06:35 57.32961 46.62608 32927 ft 501 kts 78°
2026-04-19 06:35 57.34590 46.75157 32923 ft 502 kts 75°
2026-04-19 06:36 57.37241 46.87119 32923 ft 503 kts 66°
2026-04-19 06:36 57.40125 46.98947 32921 ft 504 kts 66°
2026-04-19 06:37 57.42992 47.10804 32918 ft 504 kts 66°
2026-04-19 06:37 57.45846 47.22676 32921 ft 504 kts 66°
2026-04-19 06:38 57.48689 47.34583 32917 ft 504 kts 66°
2026-04-19 06:38 57.51531 47.46497 32917 ft 504 kts 66°
2026-04-19 06:39 57.54372 47.58418 32922 ft 504 kts 66°
2026-04-19 06:39 57.57198 47.70365 32921 ft 504 kts 67°
2026-04-19 06:40 57.60007 47.82337 32923 ft 504 kts 67°
2026-04-19 06:40 57.62800 47.94341 32918 ft 504 kts 67°
2026-04-19 06:41 57.65583 48.06358 32918 ft 504 kts 67°
2026-04-19 06:41 57.68372 48.18382 32917 ft 504 kts 67°
2026-04-19 06:42 57.71144 48.30425 32919 ft 504 kts 67°
2026-04-19 06:42 57.73878 48.42508 32919 ft 504 kts 70°
2026-04-19 06:43 57.75508 48.55181 32912 ft 500 kts 85°
2026-04-19 06:43 57.76420 48.68109 32911 ft 501 kts 84°
2026-04-19 06:44 57.77347 48.81031 32909 ft 501 kts 85°
2026-04-19 06:44 57.78258 48.93977 32906 ft 501 kts 85°
2026-04-19 06:45 57.79148 49.06929 32905 ft 501 kts 85°
2026-04-19 06:45 57.80020 49.19893 32905 ft 501 kts 85°
2026-04-19 06:46 57.80880 49.32852 32901 ft 501 kts 85°
2026-04-19 06:46 57.81726 49.45820 32899 ft 501 kts 85°
2026-04-19 06:47 57.82563 49.58794 32899 ft 501 kts 85°
2026-04-19 06:47 57.83389 49.71769 32892 ft 501 kts 85°
2026-04-19 06:48 57.84202 49.84751 32893 ft 501 kts 85°
2026-04-19 06:48 57.84990 49.97731 32884 ft 500 kts 86°
2026-04-19 06:49 57.85766 50.10721 32883 ft 501 kts 86°
2026-04-19 06:49 57.86548 50.23712 32880 ft 501 kts 86°
2026-04-19 06:50 57.87314 50.36710 32872 ft 501 kts 86°
2026-04-19 06:50 57.88057 50.49715 32870 ft 501 kts 86°
2026-04-19 06:51 57.88789 50.62737 32864 ft 501 kts 86°
2026-04-19 06:51 57.89514 50.75763 32861 ft 501 kts 86°
2026-04-19 06:52 57.90223 50.88808 32858 ft 501 kts 86°
2026-04-19 06:52 57.90922 51.01854 32855 ft 502 kts 86°
2026-04-19 06:53 57.91607 51.14906 32850 ft 502 kts 86°
2026-04-19 06:53 57.92275 51.27981 32850 ft 502 kts 87°
2026-04-19 06:54 57.92929 51.41060 32844 ft 502 kts 87°
2026-04-19 06:54 57.93578 51.54151 32840 ft 503 kts 87°
2026-04-19 06:55 57.94223 51.67256 32837 ft 503 kts 87°
2026-04-19 06:55 57.94846 51.80379 32837 ft 504 kts 87°
2026-04-19 06:56 57.95460 51.93532 32837 ft 505 kts 87°
2026-04-19 06:56 57.96069 52.06699 32832 ft 505 kts 88°
2026-04-19 06:57 57.96657 52.19877 32834 ft 505 kts 88°
2026-04-19 06:57 57.97238 52.33069 32829 ft 506 kts 88°
2026-04-19 06:58 57.97805 52.46285 32830 ft 507 kts 88°
2026-04-19 06:58 57.98359 52.59523 32829 ft 507 kts 88°
2026-04-19 06:59 57.98894 52.72786 32830 ft 508 kts 88°
2026-04-19 06:59 57.99414 52.86072 32833 ft 509 kts 88°
2026-04-19 07:00 57.99925 52.99380 32838 ft 509 kts 88°
2026-04-19 07:00 58.00431 53.12704 32838 ft 510 kts 88°
2026-04-19 07:01 58.00917 53.26048 32837 ft 510 kts 88°
2026-04-19 07:01 58.01386 53.39398 32834 ft 510 kts 88°
2026-04-19 07:02 58.01845 53.52750 32834 ft 511 kts 88°
2026-04-19 07:02 58.02291 53.66129 32831 ft 511 kts 88°
2026-04-19 07:03 58.02716 53.79522 32834 ft 512 kts 89°
2026-04-19 07:03 58.03128 53.92934 32830 ft 512 kts 89°
2026-04-19 07:04 58.03529 54.06343 32828 ft 512 kts 88°
2026-04-19 07:04 58.03935 54.19771 32833 ft 512 kts 88°
2026-04-19 07:05 58.04319 54.33193 32836 ft 512 kts 89°
2026-04-19 07:05 58.04692 54.46617 32839 ft 512 kts 89°
2026-04-19 07:06 58.05046 54.60046 32841 ft 512 kts 89°
2026-04-19 07:06 58.05378 54.73459 32839 ft 512 kts 89°
2026-04-19 07:07 58.04914 54.86776 32837 ft 508 kts 101°
2026-04-19 07:07 58.03981 54.99990 32840 ft 508 kts 101°
2026-04-19 07:08 58.03192 55.11060 32842 ft 508 kts 101°
2026-04-19 07:08 58.02227 55.24280 32847 ft 508 kts 101°
2026-04-19 07:09 58.01260 55.37484 32848 ft 508 kts 101°
2026-04-19 07:09 58.00288 55.50694 32845 ft 508 kts 101°
2026-04-19 07:10 57.99306 55.63889 32851 ft 508 kts 101°
2026-04-19 07:10 57.98304 55.77086 32848 ft 508 kts 101°
2026-04-19 07:11 57.97293 55.90180 32849 ft 508 kts 101°
2026-04-19 07:11 57.96267 56.03444 32848 ft 508 kts 101°
2026-04-19 07:12 57.95234 56.16618 32848 ft 508 kts 101°
2026-04-19 07:12 57.94185 56.29781 32849 ft 509 kts 101°
2026-04-19 07:13 57.93141 56.42707 32864 ft 509 kts 101°
2026-04-19 07:13 57.92091 56.55575 32878 ft 509 kts 101°
2026-04-19 07:14 57.90990 56.68811 32892 ft 509 kts 101°
2026-04-19 07:14 57.89890 56.81961 32907 ft 509 kts 101°
2026-04-19 07:15 57.88775 56.95109 32918 ft 509 kts 102°
2026-04-19 07:16 57.87068 57.14812 32931 ft 509 kts 102°
2026-04-19 07:16 57.85911 57.27944 32940 ft 510 kts 102°
2026-04-19 07:17 57.84747 57.41063 32946 ft 509 kts 102°
2026-04-19 07:17 57.83572 57.54172 32949 ft 509 kts 102°
2026-04-19 07:18 57.82383 57.67271 32964 ft 510 kts 102°
2026-04-19 07:18 57.81173 57.80376 32968 ft 510 kts 102°
2026-04-19 07:19 57.79946 57.93481 32981 ft 510 kts 102°
2026-04-19 07:19 57.78711 58.06580 32997 ft 510 kts 102°
2026-04-19 07:20 57.77472 58.19665 32990 ft 510 kts 102°
2026-04-19 07:20 57.76216 58.32751 33005 ft 510 kts 102°
2026-04-19 07:21 57.74953 58.45838 32999 ft 511 kts 102°
2026-04-19 07:21 57.73683 58.58906 33011 ft 511 kts 102°
2026-04-19 07:22 57.72403 58.71983 33003 ft 511 kts 103°
2026-04-19 07:22 57.71103 58.85043 33018 ft 511 kts 103°
2026-04-19 07:23 57.69788 58.98117 33024 ft 511 kts 103°
2026-04-19 07:23 57.68460 59.11167 33028 ft 511 kts 103°
2026-04-19 07:24 57.67112 59.24216 33034 ft 511 kts 103°
2026-04-19 07:24 57.65748 59.37251 33033 ft 511 kts 103°
2026-04-19 07:25 57.64381 59.50279 33031 ft 511 kts 103°
2026-04-19 07:25 57.63003 59.63306 33048 ft 512 kts 103°
2026-04-19 07:26 57.61607 59.76342 33056 ft 512 kts 103°
2026-04-19 07:26 57.60194 59.89370 33056 ft 513 kts 103°
2026-04-19 07:27 57.58758 60.02392 33058 ft 513 kts 104°
2026-04-19 07:27 57.57312 60.15396 33058 ft 513 kts 103°
2026-04-19 07:28 57.55867 60.28413 33056 ft 513 kts 103°
2026-04-19 07:28 57.54403 60.41413 33061 ft 513 kts 104°
2026-04-19 07:29 57.52916 60.54400 33055 ft 513 kts 104°
2026-04-19 07:29 57.51997 60.67569 33056 ft 515 kts 93°
2026-04-19 07:30 57.51628 60.80868 33058 ft 515 kts 94°
2026-04-19 07:30 57.51227 60.94165 33064 ft 515 kts 94°
2026-04-19 07:31 57.50812 61.07467 33069 ft 515 kts 94°
2026-04-19 07:31 57.50386 61.20749 33072 ft 515 kts 94°
2026-04-19 07:32 57.49955 61.34034 33074 ft 515 kts 94°
2026-04-19 07:32 57.49502 61.47307 33078 ft 514 kts 94°
2026-04-19 07:33 57.49026 61.60582 32841 ft 515 kts 94°
2026-04-19 07:33 57.48785 61.67230 32572 ft 515 kts 94°
2026-04-19 07:33 57.48546 61.73864 32306 ft 515 kts 94°
2026-04-19 07:33 57.48306 61.80501 31491 ft 518 kts 94°
2026-04-19 07:34 57.48056 61.87209 30766 ft 518 kts 94°
2026-04-19 07:34 57.47805 61.93849 30239 ft 513 kts 94°
2026-04-19 07:34 57.47555 62.00439 29557 ft 509 kts 94°
2026-04-19 07:34 57.47301 62.06946 28987 ft 503 kts 95°
2026-04-19 07:35 57.47045 62.13390 28396 ft 497 kts 95°
2026-04-19 07:35 57.46789 62.19765 27818 ft 492 kts 95°
2026-04-19 07:35 57.46535 62.26070 27249 ft 487 kts 95°
2026-04-19 07:35 57.46286 62.32311 26696 ft 482 kts 95°
2026-04-19 07:36 57.46042 62.38491 26128 ft 478 kts 95°
2026-04-19 07:36 57.45796 62.44618 25570 ft 473 kts 95°
2026-04-19 07:36 57.45545 62.50684 25030 ft 469 kts 95°
2026-04-19 07:36 57.45293 62.56691 24492 ft 465 kts 95°
2026-04-19 07:37 57.45042 62.62640 23969 ft 460 kts 95°
2026-04-19 07:37 57.44794 62.68530 23419 ft 455 kts 95°
2026-04-19 07:37 57.44544 62.74348 22928 ft 449 kts 95°
2026-04-19 07:37 57.44295 62.80084 22447 ft 442 kts 95°
2026-04-19 07:38 57.44044 62.85734 21992 ft 436 kts 96°
2026-04-19 07:38 57.43790 62.91302 21541 ft 431 kts 96°
2026-04-19 07:38 57.43541 62.96816 21088 ft 425 kts 96°
2026-04-19 07:38 57.43294 63.02249 20646 ft 421 kts 96°
2026-04-19 07:39 57.43045 63.07632 20182 ft 417 kts 96°
2026-04-19 07:39 57.42797 63.12963 19732 ft 413 kts 96°
2026-04-19 07:39 57.42549 63.18254 19259 ft 410 kts 96°
2026-04-19 07:39 57.42299 63.23516 18790 ft 408 kts 96°
2026-04-19 07:40 57.42050 63.28743 18294 ft 406 kts 96°
2026-04-19 07:40 57.41798 63.33942 17778 ft 404 kts 96°
2026-04-19 07:40 57.41548 63.39108 17296 ft 400 kts 96°
2026-04-19 07:40 57.41299 63.44238 16815 ft 398 kts 96°
2026-04-19 07:41 57.41047 63.49332 16331 ft 396 kts 96°
2026-04-19 07:41 57.40796 63.54400 15847 ft 394 kts 96°
2026-04-19 07:41 57.40543 63.59454 15357 ft 393 kts 96°
2026-04-19 07:41 57.40288 63.64486 14872 ft 391 kts 96°
2026-04-19 07:42 57.40030 63.69501 14380 ft 390 kts 96°
2026-04-19 07:42 57.39768 63.74506 13878 ft 389 kts 97°
2026-04-19 07:42 57.39226 63.79401 13344 ft 387 kts 106°
2026-04-19 07:42 57.38549 63.84209 12840 ft 384 kts 105°
2026-04-19 07:43 57.37876 63.88979 12338 ft 382 kts 106°
2026-04-19 07:43 57.37205 63.93720 11819 ft 379 kts 106°
2026-04-19 07:43 57.36538 63.98429 11306 ft 377 kts 105°
2026-04-19 07:43 57.35876 64.03099 10777 ft 374 kts 106°
2026-04-19 07:44 57.35217 64.07713 10500 ft 364 kts 106°
2026-04-19 07:44 57.34578 64.12168 10370 ft 351 kts 106°
2026-04-19 07:44 57.33961 64.16462 10255 ft 339 kts 106°
2026-04-19 07:44 57.33365 64.20612 10120 ft 328 kts 106°
2026-04-19 07:45 57.32787 64.24630 9995 ft 318 kts 106°
2026-04-19 07:45 57.32223 64.28539 9718 ft 313 kts 106°
2026-04-19 07:45 57.31663 64.32413 9367 ft 310 kts 106°
2026-04-19 07:45 57.31107 64.36259 9002 ft 308 kts 107°
2026-04-19 07:46 57.30552 64.40074 8638 ft 306 kts 107°
2026-04-19 07:46 57.30001 64.43860 8282 ft 304 kts 107°
2026-04-19 07:46 57.29636 64.46360 8041 ft 303 kts 107°
2026-04-19 07:46 57.29086 64.50096 7677 ft 300 kts 109°
2026-04-19 07:47 57.28275 64.53600 7316 ft 294 kts 123°
2026-04-19 07:47 57.27224 64.56819 6968 ft 292 kts 124°
2026-04-19 07:47 57.26180 64.60021 6613 ft 290 kts 124°
2026-04-19 07:47 57.25151 64.63186 6119 ft 285 kts 124°
2026-04-19 07:48 57.24136 64.66303 5492 ft 282 kts 124°
2026-04-19 07:48 57.23136 64.69370 5065 ft 277 kts 123°
2026-04-19 07:48 57.22146 64.72406 4706 ft 275 kts 123°
2026-04-19 07:48 57.21162 64.75415 4364 ft 273 kts 123°
2026-04-19 07:49 57.20186 64.78398 4018 ft 270 kts 123°
2026-04-19 07:49 57.19221 64.81345 3898 ft 269 kts 123°
2026-04-19 07:49 57.18240 64.84336 3743 ft 268 kts 123°
2026-04-19 07:49 57.17289 64.87228 3599 ft 267 kts 123°
2026-04-19 07:50 57.16313 64.90193 3436 ft 266 kts 123°
2026-04-19 07:50 57.15367 64.93064 3288 ft 265 kts 123°
2026-04-19 07:50 57.14354 64.95857 3049 ft 257 kts 133°
2026-04-19 07:50 57.13096 64.98092 2936 ft 239 kts 139°
2026-04-19 07:51 57.11906 65.00093 2742 ft 224 kts 139°
2026-04-19 07:51 57.10813 65.01936 2611 ft 209 kts 139°
2026-04-19 07:51 57.09763 65.03705 2492 ft 200 kts 138°
2026-04-19 07:51 57.08772 65.05373 2368 ft 186 kts 137°
2026-04-19 07:52 57.08028 65.07218 2264 ft 172 kts 109°
2026-04-19 07:52 57.07959 65.09257 2213 ft 154 kts 79°
2026-04-19 07:52 57.08425 65.10937 2205 ft 147 kts 50°
2026-04-19 07:52 57.09103 65.12308 2204 ft 143 kts 51°
2026-04-19 07:53 57.09778 65.13684 2207 ft 143 kts 51°
2026-04-19 07:53 57.10444 65.15032 2138 ft 142 kts 51°
2026-04-19 07:53 57.11094 65.16343 1997 ft 139 kts 51°
2026-04-19 07:53 57.11740 65.17646 1847 ft 136 kts 51°
2026-04-19 07:54 57.11856 65.17878 1823 ft 136 kts 51°
2026-04-19 07:54 57.11861 65.17888 1822 ft 136 kts 51°
2026-04-19 07:54 57.12503 65.19189 1653 ft 136 kts 51°
2026-04-19 07:54 57.13130 65.20448 1471 ft 136 kts 50°
2026-04-19 07:55 57.13773 65.21717 1191 ft 135 kts 49°
2026-04-19 07:55 57.14393 65.22997 1080 ft 134 kts 50°
2026-04-19 07:55 57.15019 65.24280 955 ft 135 kts 49°
2026-04-19 07:55 57.15661 65.25549 735 ft 135 kts 50°
2026-04-19 07:56 57.16287 65.26830 556 ft 134 kts 50°
2026-04-19 07:56 57.16914 65.28096 408 ft 133 kts 50°
2026-04-19 07:56 57.17495 65.29282 391 ft 113 kts 47°
2026-04-19 07:56 57.17961 65.30226 375 ft 84 kts 46°
2026-04-19 07:57 57.18303 65.30907 360 ft 63 kts 47°
2026-04-19 07:57 57.18547 65.31404 356 ft 40 kts 47°
2026-04-19 07:57 57.18683 65.31679 350 ft 20 kts 48°
2026-04-19 07:57 57.18698 65.31796 355 ft 8 kts 113°
2026-04-19 07:58 57.18673 65.31853 350 ft 5 kts 138°
2026-04-19 07:58 57.18634 65.31908 359 ft 10 kts 142°
2026-04-19 07:58 57.18573 65.32008 350 ft 13 kts 137°
2026-04-19 07:58 57.18492 65.32145 351 ft 19 kts 135°
2026-04-19 07:59 57.18464 65.32287 343 ft 8 kts 84°
2026-04-19 07:59 57.18466 65.32423 337 ft 14 kts 88°
2026-04-19 07:59 57.18471 65.32641 329 ft 20 kts 87°
2026-04-19 07:59 57.18476 65.32892 333 ft 19 kts 89°
2026-04-19 08:00 57.18490 65.33109 330 ft 12 kts 61°
2026-04-19 08:00 57.18545 65.33222 335 ft 12 kts 45°
2026-04-19 08:00 57.18602 65.33329 335 ft 12 kts 47°
2026-04-19 08:00 57.18612 65.33465 339 ft 12 kts 89°
2026-04-19 08:01 57.18600 65.33620 338 ft 13 kts 119°
2026-04-19 08:01 57.18534 65.33754 340 ft 15 kts 135°
2026-04-19 08:01 57.18454 65.33903 336 ft 17 kts 134°
2026-04-19 08:01 57.18367 65.34066 337 ft 18 kts 135°
2026-04-19 08:02 57.18274 65.34239 338 ft 20 kts 137°
2026-04-19 08:02 57.18173 65.34426 337 ft 21 kts 134°
2026-04-19 08:02 57.18070 65.34616 337 ft 20 kts 135°
2026-04-19 08:02 57.18015 65.34721 336 ft 0 kts 127°
2026-04-19 08:03 57.18013 65.34728 337 ft 5 kts 116°
2026-04-19 08:03 57.18031 65.34812 338 ft 4 kts 41°
2026-04-19 08:03 57.18050 65.34845 339 ft 1 kts 43°
2026-04-19 08:04 57.18053 65.34850 340 ft 1 kts 43°
2026-04-19 08:04 57.18054 65.34851 340 ft 0 kts 43°
2026-04-19 08:16 57.18054 65.34850 341 ft 0 kts 43°
2026-04-19 08:16 57.18053 65.34850 341 ft 0 kts 43°